Content
SEND FEEDBACK

Daily
Averages
Monthly
Summary
Canada

MONTREAL, QUEBEC


Home > North America > Canada > Quebec
Elevation: 118 feet     Latitude: 45 28N     Longitude: 073 45W

WEATHER
 
SELECT A DAY
Number of Records: 198,515;   Date Range: 1/1/95 - 8/26/14
 
SHARE

PRINT THIS DATA

[ ← Previous Day ]
WEATHER ALMANAC - MARCH 26, 2013
[ Next Day → ]
[ °C ]   °F
Weather ElementAverageHighLow
Temperature37.4 °F42.8 °F (2:00 pm)28.4 °F (7:00 am)
Dewpoint24.3 °F28.4 °F (10:28 pm)21.2 °F (6:00 am)
Humidity58.3 %75 % (5:00 am)37 % (2:00 pm)
Barometer29.78 in29.81 in (11:00 am)29.73 in (1:00 am)
Wind Speed9.2 mph16.1 mph (3:29 pm)
Wind Gust19.6 mph (3:03 pm)
Weather ElementAverage
Visibility18.4 mi
Wind DirectionSSW (201.3 °)

Weather ElementTotal
Precipitation---
Heating Degree Days29.4 (Base 65)
Averaged from 31 records on March 26, 2013
WEATHER CONDITIONS BREAKOUT
WIND DIRECTION BREAKOUT
WEATHER BY HOUR - MARCH 26, 2013
[ °C ]   °F
Local TimeTemperatureDewpointHumidityBarometerVisibilityWind DirectionWind SpeedGust SpeedPrecipitationEventsConditions
1:00 AM33.8 °F23.0 °F65 %29.73 in15.0 miNorth (10°)13.8 mphScattered Clouds
2:00 AM34.0 °F24.0 °F55 %29.73 in15.0 miNNE (20°)12.7 mphMostly Cloudy
2:00 AM33.8 °F23.0 °F65 %29.73 in15.0 miNNE (20°)12.7 mphMostly Cloudy
3:00 AM33.8 °F23.0 °F65 %29.73 in15.0 miNNE (20°)10.4 mphMostly Cloudy
4:00 AM32.0 °F23.0 °F69 %29.74 in15.0 miNorth (360°)6.9 mphScattered Clouds
5:00 AM30.2 °F23.0 °F75 %29.75 in15.0 miNorth (360°)6.9 mphPartly Cloudy
6:00 AM30.2 °F21.2 °F69 %29.76 in15.0 miNorth (360°)8.1 mphMostly Cloudy
7:00 AM28.4 °F21.2 °F74 %29.76 in15.0 miNNW (340°)5.8 mphPartly Cloudy
8:00 AM30.2 °F21.2 °F69 %29.78 in15.0 miNW (320°)4.6 mphPartly Cloudy
8:00 AM31.0 °F22.0 °F58 %29.78 in15.0 miNW (310°)4.6 mphScattered Clouds
9:00 AM33.8 °F23.0 °F65 %29.79 in15.0 miNNE (20°)8.1 mphPartly Cloudy
10:00 AM37.4 °F23.0 °F56 %29.80 in15.0 miNorth (10°)5.8 mphPartly Cloudy
11:00 AM37.4 °F24.8 °F60 %29.81 in15.0 miNE (40°)10.4 mphScattered Clouds
12:00 PM39.2 °F23.0 °F52 %29.80 in15.0 miNNW (340°)6.9 mphPartly Cloudy
1:00 PM41.0 °F24.8 °F53 %29.79 in15.0 miSW (220°)8.1 mphScattered Clouds
2:00 PM42.8 °F24.8 °F49 %29.79 in15.0 miSW (220°)8.1 mphMostly Cloudy
2:00 PM42.0 °F25.0 °F37 %29.79 in15.0 miSW (220°)8.1 mphMostly Cloudy
3:00 PM42.8 °F24.8 °F49 %29.78 in30.0 miSW (220°)15.0 mphPartly Cloudy
3:03 PM42.8 °F26.6 °F53 %29.78 in30.0 miSW (220°)13.8 mph19.6 mphPartly Cloudy
3:29 PM42.8 °F24.8 °F49 %29.78 in30.0 miSW (220°)16.1 mphPartly Cloudy
4:00 PM42.8 °F24.8 °F49 %29.78 in30.0 miSW (220°)13.8 mphMostly Cloudy
5:00 PM42.8 °F24.8 °F49 %29.78 in30.0 miSSW (210°)11.5 mphMostly Cloudy
6:00 PM42.8 °F23.0 °F46 %29.78 in30.0 miSW (220°)10.4 mphMostly Cloudy
7:00 PM41.0 °F24.8 °F53 %29.78 in30.0 miWSW (240°)10.4 mphMostly Cloudy
8:00 PM38.0 °F26.0 °F50 %29.79 in15.0 miSW (230°)8.1 mphScattered Clouds
8:00 PM39.2 °F26.6 °F61 %29.78 in15.0 miSW (230°)8.1 mphPartly Cloudy
9:00 PM39.2 °F24.8 °F56 %29.79 in15.0 miWest (260°)6.9 mphMostly Cloudy
9:15 PM39.2 °F26.6 °F61 %29.80 in15.0 miWest (260°)8.1 mphMostly Cloudy
10:00 PM39.2 °F24.8 °F56 %29.80 in15.0 miWSW (250°)6.9 mphMostly Cloudy
10:28 PM37.4 °F28.4 °F70 %29.81 in15.0 miEast (90°)6.9 mphRainLight Rain Showers
11:00 PM37.4 °F28.4 °F70 %29.80 in15.0 miSouth (180°)5.8 mphOvercast
Hourly data recorded from CYUL, located miles away from Montreal, Quebec







STORIES FROM OUR PARTNERS